Jefferson, NC

1:57 AM EST on November 20, 2019 (GMT -0500)
Ashe County

Weather History for KGEV - September, 2019

Change the Weather History Date:

Thursday, September 26, 2019

  Actual Average Record
Temperature  
Mean Temperature 65 °F -  
Max Temperature 74 °F 70 °F 82 °F (1970)
Min Temperature 56 °F 48 °F 36 °F (1983)
Growing Degree Days 15 (Base 50)    
Moisture  
Dew Point 56 °F    
Average Humidity 72    
Maximum Humidity 91    
Minimum Humidity 47    
Precipitation  
Precipitation 0.01 in - - ()
Sea Level Pressure  
Sea Level Pressure 30.03 in    
Wind  
Wind Speed 4 mph ()    
Max Wind Speed 20 mph    
Max Gust Speed 25 mph    
Visibility 9.9 miles    
Events Rain    
Averages and records for this station are not official NWS values.
T = Trace of Precipitation, MM = Missing Value Source: Averaged Metar Reports

Daily Weather History Graph

Daily Weather History Graph

Search for Another Location

Airport or City:

Astronomy

Sep. 26, 2019 Rise Set
Actual Time 7:16 AM EDT 7:16 PM EDT
Civil Twilight 6:50 AM EDT 7:42 PM EDT
Nautical Twilight 6:20 AM EDT 8:12 PM EDT
Astronomical Twilight 5:50 AM EDT 8:42 PM EDT
Moon 4:28 AM EDT (9/26) 6:23 PM EDT (9/26)
Length of Visible Light 12h 51m
Length of Day
12h 00m
Waning Crescent, 7% of the Moon is Illuminated
Sep 26
Waning Crescent
Sep 28
New
Oct 5
First Quarter
Oct 13
Full
Oct 21
Last Quarter

Hourly Weather History & Observations

Time (EDT) Temp. Dew Point Humidity Pressure Visibility Wind Dir Wind Speed Gust Speed Precip Events Conditions
12:15 AM 62.2 °F 52.5 °F 70% 30.04 in 10.0 mi WSW 3.5 mph - N/A   Clear
12:35 AM 62.4 °F 51.6 °F 68% 30.04 in 10.0 mi WSW 3.5 mph - N/A   Clear
12:55 AM 61.7 °F 51.4 °F 69% 30.03 in 10.0 mi Calm Calm - N/A   Clear
1:15 AM 60.1 °F 51.4 °F 73% 30.03 in 10.0 mi Calm Calm - N/A   Scattered Clouds
1:35 AM 59.9 °F 50.5 °F 71% 30.03 in 10.0 mi SW 4.6 mph - N/A   Overcast
1:55 AM 59.2 °F 50.4 °F 73% 30.03 in 10.0 mi SSW 4.6 mph - N/A   Mostly Cloudy
2:15 AM 59.0 °F 52.7 °F 80% 30.02 in 10.0 mi Calm Calm - N/A   Scattered Clouds
2:35 AM 59.4 °F 54.9 °F 85% 30.02 in 10.0 mi Calm Calm - N/A   Overcast
2:55 AM 60.4 °F 52.9 °F 76% 30.01 in 10.0 mi Calm Calm - N/A   Mostly Cloudy
3:15 AM 59.4 °F 53.6 °F 81% 30.01 in 10.0 mi Calm Calm - N/A   Mostly Cloudy
3:35 AM 56.8 °F 53.2 °F 88% 30.01 in 10.0 mi Calm Calm - N/A   Scattered Clouds
3:55 AM 59.4 °F 49.6 °F 70% 30.00 in 10.0 mi South 3.5 mph - N/A   Clear
4:15 AM 56.7 °F 52.5 °F 86% 29.99 in 10.0 mi West 3.5 mph - N/A   Clear
4:35 AM 57.0 °F 52.3 °F 84% 30.00 in 10.0 mi NW 3.5 mph - N/A   Mostly Cloudy
4:55 AM 57.4 °F 51.6 °F 81% 30.00 in 10.0 mi SW 5.8 mph - N/A   Overcast
5:15 AM 59.5 °F 50.0 °F 71% 29.99 in 10.0 mi Calm Calm - N/A   Overcast
5:35 AM 58.3 °F 50.5 °F 75% 30.00 in 10.0 mi Calm Calm - N/A   Overcast
5:55 AM 60.8 °F 49.1 °F 65% 30.00 in 10.0 mi Calm Calm - N/A   Overcast
6:15 AM 60.3 °F 48.9 °F 66% 30.01 in 10.0 mi Calm Calm - N/A   Overcast
6:35 AM 60.8 °F 49.6 °F 67% 30.01 in 10.0 mi Calm Calm - N/A   Overcast
6:55 AM 57.2 °F 52.9 °F 85% 30.01 in 10.0 mi Calm Calm - N/A   Overcast
7:15 AM 58.8 °F 52.0 °F 78% 30.02 in 10.0 mi Calm Calm - N/A   Scattered Clouds
7:35 AM 58.3 °F 52.3 °F 81% 30.02 in 10.0 mi Calm Calm - N/A   Mostly Cloudy
7:55 AM 59.7 °F 51.8 °F 75% 30.02 in 10.0 mi Calm Calm - N/A   Overcast
8:15 AM 61.9 °F 49.5 °F 64% 30.03 in 10.0 mi West 3.5 mph - N/A   Overcast
8:35 AM 68.2 °F 46.9 °F 47% 30.03 in 10.0 mi Calm Calm - N/A   Overcast
8:55 AM 61.0 °F 53.2 °F 76% 30.03 in 10.0 mi SW 3.5 mph - N/A   Overcast
9:55 AM 70.0 °F 50.0 °F 49% 30.03 in 10.0 mi WSW 10.4 mph 17.3 mph N/A   Overcast
10:15 AM 69.8 °F 50.7 °F 51% 30.03 in 10.0 mi WSW 4.6 mph 19.6 mph N/A   Overcast
10:35 AM 71.6 °F 52.0 °F 50% 30.04 in 10.0 mi West 12.7 mph 18.4 mph N/A   Mostly Cloudy
10:55 AM 70.0 °F 53.6 °F 56% 30.04 in 10.0 mi West 12.7 mph 18.4 mph N/A   Scattered Clouds
11:15 AM 73.0 °F 55.6 °F 54% 30.04 in 10.0 mi West 8.1 mph - N/A   Mostly Cloudy
11:35 AM 72.5 °F 56.3 °F 57% 30.04 in 10.0 mi West 11.5 mph 17.3 mph N/A   Overcast
11:55 AM 74.5 °F 58.3 °F 57% 30.04 in 10.0 mi West 12.7 mph 23.0 mph N/A   Mostly Cloudy
12:15 PM 74.1 °F 59.0 °F 59% 30.04 in 10.0 mi West 11.5 mph 18.4 mph N/A   Scattered Clouds
12:35 PM 73.4 °F 59.0 °F 61% 30.04 in 10.0 mi West 11.5 mph 17.3 mph N/A   Overcast
12:55 PM 72.3 °F 58.6 °F 62% 30.05 in 10.0 mi West 12.7 mph 19.6 mph N/A   Overcast
1:15 PM 71.4 °F 59.0 °F 65% 30.04 in 10.0 mi West 13.8 mph 23.0 mph N/A   Overcast
1:35 PM 72.0 °F 59.4 °F 64% 30.04 in 10.0 mi West 12.7 mph 21.9 mph N/A   Scattered Clouds
1:55 PM 72.7 °F 60.4 °F 65% 30.03 in 10.0 mi West 15.0 mph 24.2 mph N/A   Scattered Clouds
2:15 PM 73.4 °F 60.8 °F 65% 30.03 in 10.0 mi WNW 12.7 mph 18.4 mph N/A   Scattered Clouds
2:35 PM 73.2 °F 61.2 °F 66% 30.02 in 10.0 mi WNW 8.1 mph 19.6 mph N/A   Scattered Clouds
2:55 PM 72.3 °F 61.2 °F 68% 30.01 in 10.0 mi West 19.6 mph 25.3 mph N/A   Scattered Clouds
3:15 PM 74.7 °F 61.5 °F 63% 30.01 in 10.0 mi West 16.1 mph 23.0 mph N/A   Mostly Cloudy
3:35 PM 74.5 °F 61.9 °F 65% 30.02 in 10.0 mi West 11.5 mph 19.6 mph N/A   Mostly Cloudy
3:55 PM 73.4 °F 61.5 °F 66% 30.02 in 10.0 mi West 6.9 mph - N/A   Mostly Cloudy
4:15 PM 72.9 °F 61.3 °F 67% 30.02 in 10.0 mi West 8.1 mph - N/A   Overcast
4:35 PM 72.7 °F 61.7 °F 68% 30.02 in 10.0 mi WSW 8.1 mph 17.3 mph N/A   Overcast
4:55 PM 72.7 °F 61.7 °F 68% 30.02 in 10.0 mi WNW 10.4 mph - N/A   Scattered Clouds
5:35 PM 73.0 °F 61.2 °F 66% 30.02 in 10.0 mi West 12.7 mph 16.1 mph N/A   Mostly Cloudy
5:55 PM 72.7 °F 61.3 °F 67% 30.02 in 10.0 mi West 10.4 mph - N/A   Scattered Clouds
6:15 PM 72.3 °F 61.3 °F 68% 30.02 in 10.0 mi NW 4.6 mph - N/A   Clear
6:35 PM 70.9 °F 61.7 °F 73% 30.03 in 10.0 mi NW 3.5 mph - N/A   Scattered Clouds
6:55 PM 70.3 °F 61.9 °F 74% 30.03 in 10.0 mi Calm Calm - N/A   Mostly Cloudy
7:15 PM 67.1 °F 62.6 °F 85% 30.04 in 7.0 mi NW 9.2 mph 18.4 mph N/A Rain Light Rain
7:35 PM 64.9 °F 61.5 °F 89% 30.05 in 7.0 mi WNW 9.2 mph - N/A   Drizzle
7:55 PM 66.4 °F 60.3 °F 81% 30.06 in 10.0 mi West 3.5 mph - 0.01 in   Overcast
8:15 PM 66.4 °F 60.1 °F 80% 30.06 in 10.0 mi Calm Calm - N/A   Overcast
8:35 PM 66.0 °F 60.4 °F 82% 30.06 in 10.0 mi WNW 3.5 mph - N/A   Overcast
8:55 PM 65.3 °F 61.5 °F 88% 30.06 in 10.0 mi WNW 6.9 mph - N/A   Overcast
9:15 PM 65.8 °F 60.3 °F 82% 30.07 in 10.0 mi WNW 5.8 mph - N/A   Overcast
9:35 PM 65.1 °F 61.2 °F 87% 30.08 in 10.0 mi WNW 3.5 mph - N/A   Overcast
9:55 PM 63.7 °F 60.8 °F 90% 30.08 in 10.0 mi Calm Calm - N/A   Scattered Clouds
10:15 PM 64.8 °F 60.4 °F 86% 30.09 in 10.0 mi Calm Calm - N/A   Mostly Cloudy
10:55 PM 65.1 °F 60.4 °F 85% 30.10 in 10.0 mi Calm Calm - N/A   Mostly Cloudy
11:15 PM 64.0 °F 60.6 °F 89% 30.10 in 10.0 mi Calm Calm - N/A   Overcast
11:35 PM 64.4 °F 60.3 °F 86% 30.10 in 10.0 mi Calm Calm - N/A   Overcast
11:55 PM 63.1 °F 60.4 °F 91% 30.10 in 10.0 mi Calm Calm - N/A   Overcast